sat.trackr.live / text

‹ back to catalog

STARLINK-31834

NORAD 59721 · 2024-088P

PAYLOAD ACTIVE UNKNOWN

§ Identity

Operator
Country
US
Launch date
2024-05-10
Launch site
AFWTR
Launch vehicle
Mass (kg)
RCS (m²)

Purposes: comms

External: N2YO · Heavens-Above · Gunter

§ Orbital elements

Epoch: 2026-09-21T03:47:25.309248Z

Period
94.01 min
Inclination
53.1636°
Eccentricity
0.0001146
Mean motion
15.31702765 rev/d
Perigee alt
469.9 km
Apogee alt
471.5 km
Semi-major
6,848.9 km
B*
6.3981e-6
RAAN
310.9621°
Arg perigee
95.6023°
Mean anomaly
264.5109°
Rev number
13,380

§ Raw data

STARLINK-318341 59721U 24088P   26264.15793182 -.00000167  00000+0  63981-5 0  99982 59721  53.1636 310.9621 0001146  95.6023 264.5109 15.31702765133808

JSON: /api/v1/satellites/59721 · /tle

For live sub-satellite position, see the globe view (requires WebGL).

§ Visibility from observer

Set your observer location to see the next 7 days of passes ≥ 10°. The values pass through the URL so the page stays shareable.

No JS? Fill the form by hand. The geolocation button needs JavaScript.